Wind_Speed
6 4 4 3 2 2 2 1 1 2 2 3 4 5 6 6 6 6 6 6 6 6 7 7 6 6 5 5 5 4 4 3 4 7 6 3 2 5 6 6 5 5 4 3 3 3 5 6 5 6 6 3 1 2 2 1 1 0 1 1 4 3 1 1 3 3 4 7 5 6 6 5 6 4 2 2 1 1 3 3 4 6 7 10 12 16 17 18
7 5 4 3 3 3 2 2 2 2 2 2 4 5 6 7 6 7 6 6 7 7 7 7 6 6 5 5 5 4 5 4 6 7 5 4 4 6 6 6 5 4 4 3 5 6 6 5 7 7 5 2 1 1 2 0 0 1 2 2 4 1 2 4 6 6 4 5 7 6 6 5 5 7 4 2 4 5 4 4 5 5 7 9 12 16 16 16
7 5 5 4 3 3 2 3 2 2 2 3 4 5 6 7 7 8 7 7 7 8 8 7 7 6 6 5 4 5 4 4 6 4 5 6 5 6 6 6 4 4 4 3 5 7 8 2 7 7 4 2 1 1 1 0 1 1 1 2 2 2 4 6 8 7 5 3 6 7 4 2 4 6 4 3 5 6 7 5 6 6 7 9 10 15 17 16
8 6 5 5 4 3 3 3 3 3 3 4 4 4 5 7 8 8 8 8 8 8 8 8 7 6 6 4 4 3 2 2 2 2 6 8 6 6 6 5 4 4 4 4 4 7 10 4 5 6 3 2 1 1 3 2 1 0 0 1 3 4 4 6 7 6 5 4 3 7 4 2 3 4 3 4 3 4 6 6 8 10 11 12 10 13 17 16
9 7 6 5 5 4 4 4 3 3 3 4 4 5 5 6 7 8 8 8 9 9 9 9 7 6 6 4 3 1 1 1 0 2 5 8 7 6 6 5 4 3 3 3 3 6 8 5 4 3 3 2 4 2 3 3 1 0 1 3 4 4 4 4 5 5 4 3 3 7 4 1 4 3 3 4 4 3 2 0 2 5 9 14 13 14 15 15
10 9 7 6 5 5 4 4 4 4 4 3 4 5 5 6 7 8 8 9 9 9 9 9 7 6 5 3 2 1 1 1 1 0 4 7 7 6 5 4 3 3 3 2 5 5 5 5 4 2 3 2 5 3 3 4 1 1 1 5 5 5 3 3 3 3 5 2 3 3 0 2 3 2 5 6 7 3 4 5 6 6 10 18 16 14 13 12
11 11 8 6 6 5 4 4 4 4 4 4 3 4 4 6 6 7 8 8 9 9 9 9 8 6 5 2 1 1 2 1 2 1 4 6 7 6 4 3 3 3 3 3 6 5 4 5 4 4 4 2 5 4 3 3 1 2 0 3 3 4 4 3 3 1 3 4 3 2 2 1 3 2 1 4 8 4 5 8 7 8 13 17 14 11 11 12
12 11 9 7 6 6 5 4 4 4 4 4 3 3 4 5 6 7 8 8 9 9 9 9 8 6 5 4 2 2 3 1 1 2 4 5 6 5 3 2 2 2 3 5 7 4 3 5 5 4 3 1 3 4 2 3 3 3 1 4 2 3 5 4 3 2 1 2 2 2 2 3 2 1 2 4 7 6 4 7 7 8 9 11 10 9 10 10
12 11 9 8 7 6 5 5 4 4 4 4 4 4 4 5 6 6 7 8 9 9 9 9 7 6 6 4 1 3 2 4 4 3 5 5 5 5 4 2 1 1 3 6 6 6 4 4 5 2 1 1 1 4 1 2 2 2 3 5 3 4 4 2 3 3 1 0 2 1 3 4 2 3 3 7 8 7 6 7 7 7 7 7 8 9 9 9
10 11 10 8 8 7 6 5 5 4 5 5 5 5 4 4 5 6 7 8 9 9 8 8 6 5 5 3 2 3 2 6 5 4 5 5 4 4 2 1 2 2 5 4 3 5 3 3 2 2 3 1 2 2 1 1 1 1 5 5 5 5 3 1 2 4 1 1 2 1 3 2 3 1 4 3 3 5 8 7 7 7 6 7 7 8 10 10
10 10 10 9 8 7 6 6 5 4 5 6 6 5 5 4 5 6 7 8 8 8 8 6 6 6 4 2 4 2 3 6 6 6 6 4 5 3 2 2 3 0 4 1 1 3 3 7 6 2 2 1 4 2 3 1 2 2 6 6 5 4 4 2 2 4 2 1 0 2 4 3 4 2 8 4 1 4 7 6 7 7 6 7 8 8 9 10
9 9 9 9 8 7 6 6 5 5 6 5 5 5 4 4 5 6 7 7 8 8 7 6 6 5 2 2 4 2 5 6 6 7 6 4 4 2 2 2 2 1 4 2 2 1 1 5 7 2 1 1 4 3 1 3 1 4 4 3 5 4 3 5 4 3 2 1 1 1 4 6 5 8 14 7 6 5 6 6 7 7 7 7 8 7 7 10
7 7 8 8 8 7 6 5 4 4 4 5 5 4 4 5 5 6 7 7 7 7 6 6 6 4 1 1 1 4 6 8 7 7 6 5 5 3 3 3 2 1 2 1 4 2 2 4 6 1 2 2 2 2 2 2 1 3 3 1 4 3 3 7 5 4 3 2 2 2 2 6 5 12 12 8 8 7 6 6 7 7 7 7 7 7 7 10
6 7 6 5 5 6 5 4 4 4 4 5 5 5 5 5 6 7 7 7 7 7 6 6 5 4 1 0 2 3 6 9 7 5 7 6 4 5 5 4 3 2 2 4 5 4 3 4 4 2 2 3 2 2 2 2 1 2 2 1 2 2 2 4 5 6 4 0 2 3 1 7 6 5 2 7 8 7 7 7 7 7 7 7 7 7 7 8
6 7 6 4 4 5 4 4 3 4 4 6 5 4 4 5 6 6 6 7 6 6 6 5 5 4 1 1 1 3 7 8 5 5 8 6 4 4 5 6 6 5 4 6 7 6 4 4 2 2 2 2 2 3 3 3 2 2 3 2 3 2 1 2 1 4 3 1 3 4 2 7 8 2 4 5 5 5 5 6 6 7 7 7 7 7 7 7
7 6 6 6 5 5 4 3 2 3 4 4 3 3 4 5 5 5 5 5 5 6 5 3 6 4 2 1 3 4 5 5 5 7 8 7 4 5 7 7 7 6 6 7 7 5 4 3 1 0 1 0 2 3 3 3 2 2 2 3 3 3 3 2 1 0 2 1 4 4 3 5 4 2 4 3 5 5 5 5 7 7 6 7 6 7 7 7
7 6 5 6 5 4 4 2 1 2 3 3 1 1 4 4 5 5 5 6 5 5 3 0 4 5 1 1 4 4 4 5 6 8 8 7 6 7 6 5 5 5 6 5 3 2 2 2 1 1 0 1 3 3 3 2 3 3 3 3 3 3 3 2 0 1 1 1 3 5 5 6 7 4 2 4 5 7 6 7 8 7 7 7 6 7 7 8
6 6 5 4 2 2 2 1 1 2 2 1 1 3 5 7 7 6 5 7 7 4 0 3 1 3 2 2 3 4 6 8 7 7 8 6 7 6 3 1 4 5 5 3 0 1 1 1 2 1 1 2 4 3 4 4 3 4 5 4 3 2 3 2 1 2 3 1 3 5 6 8 10 10 7 7 8 8 8 9 8 8 8 7 7 7 7 8
8 7 6 4 3 3 2 1 0 1 2 4 6 8 9 8 7 4 3 5 4 2 0 2 4 2 1 4 4 5 8 10 8 6 6 5 6 5 1 2 4 3 3 3 1 1 1 1 2 1 2 4 4 4 4 3 2 1 2 3 3 2 2 1 3 0 1 1 4 6 7 9 10 11 10 8 8 8 9 9 8 8 8 8 7 7 8 9
7 8 6 5 4 3 3 1 1 2 3 6 8 7 6 5 3 2 4 5 3 0 2 1 4 2 3 5 6 8 9 7 4 3 5 7 6 5 3 3 2 0 3 4 3 1 2 2 2 2 4 4 6 7 4 2 5 4 3 2 1 1 1 3 4 2 3 1 5 7 8 10 10 10 10 8 7 7 8 9 9 8 8 8 8 9 10 9
5 5 5 4 2 2 2 2 2 2 3 6 4 2 1 2 2 2 4 4 3 1 3 2 2 4 4 6 9 9 5 2 1 2 6 7 5 4 4 3 3 2 3 3 4 1 2 2 4 5 4 1 1 3 2 3 4 3 3 4 4 2 0 3 3 1 1 2 4 6 8 10 9 9 10 8 9 10 10 11 11 11 10 8 9 11 11 8
6 5 4 3 2 0 2 3 3 1 3 5 3 4 1 2 1 2 2 3 3 2 2 1 2 4 5 6 8 6 1 2 3 3 6 7 4 3 4 4 4 4 3 4 5 2 1 3 5 4 2 4 5 4 5 4 3 3 2 2 3 3 1 4 3 0 0 0 4 5 7 10 10 10 12 11 12 12 12 12 12 11 10 9 10 10 9 8
9 7 4 3 2 2 3 4 4 1 4 5 3 3 1 3 3 3 1 1 1 2 2 1 2 4 4 2 5 5 2 5 4 4 7 7 4 1 3 5 5 4 5 4 4 3 2 3 4 1 4 3 3 4 4 3 3 1 1 1 2 1 1 1 2 1 2 2 3 5 6 10 10 9 13 15 15 13 10 12 11 10 10 10 11 9 8 9
13 10 7 5 3 4 3 4 4 1 4 5 3 3 3 3 3 2 1 1 1 1 1 0 1 3 4 2 6 6 1 2 2 5 10 8 3 1 2 5 5 4 4 6 6 5 3 1 1 2 3 1 2 2 1 1 1 4 5 4 3 2 2 2 1 2 4 1 3 4 6 8 6 5 8 9 9 9 8 10 10 9 9 10 9 8 7 8
13 14 11 8 6 6 4 5 3 3 4 4 3 5 5 3 3 2 0 1 2 0 2 0 0 2 5 5 5 4 1 2 3 4 10 7 2 2 1 1 2 4 5 7 7 4 2 1 2 3 3 2 3 3 4 4 3 4 5 4 4 4 1 4 4 3 2 2 2 2 3 6 4 4 8 7 4 6 7 9 10 8 8 9 9 9 8 8
7 13 14 11 9 8 5 3 3 4 4 3 2 5 4 3 2 1 1 1 2 2 1 3 3 5 8 6 5 3 2 1 2 3 6 3 0 1 1 0 1 1 3 4 3 1 2 1 2 3 5 3 2 2 4 6 2 3 3 3 3 3 3 3 2 2 0 3 3 2 2 4 8 8 8 6 6 7 6 8 9 8 8 9 9 9 8 8
3 7 12 13 12 10 4 1 2 3 3 1 2 4 4 3 1 1 2 1 2 4 4 1 1 5 8 7 7 4 1 3 2 2 2 1 1 2 1 3 3 1 2 1 2 1 2 3 1 2 4 4 3 1 3 6 4 2 3 5 4 2 3 2 1 2 2 2 2 2 4 2 8 9 4 2 6 8 7 9 8 8 10 10 8 8 8 7
4 5 8 13 13 11 5 3 3 1 2 3 3 3 4 3 1 1 1 1 1 4 3 1 1 4 5 5 7 4 2 4 4 0 2 2 1 2 1 3 3 5 3 3 3 1 1 4 3 3 4 3 3 1 2 3 4 2 3 2 2 3 3 2 1 2 1 3 3 3 3 2 5 10 6 1 5 9 9 10 10 10 11 9 7 6 6 5
4 5 6 10 12 11 8 4 5 2 3 6 3 4 5 3 1 1 0 2 2 3 1 2 3 3 4 4 4 4 3 2 1 1 1 1 1 1 1 2 2 4 5 3 2 1 2 2 2 3 4 3 3 2 4 1 3 3 4 2 3 4 3 2 1 0 2 1 4 6 5 3 4 8 8 3 4 7 8 8 7 5 3 4 5 6 6 6
4 4 5 8 10 10 9 6 5 2 4 4 2 7 6 2 1 2 3 2 2 2 1 2 2 5 8 7 4 4 4 2 2 3 2 1 1 2 0 1 2 2 3 2 3 2 1 1 1 1 2 3 4 3 3 3 3 3 4 3 3 2 3 2 1 3 1 3 4 7 10 6 4 5 7 4 4 5 5 4 0 3 5 5 6 6 6 5
2 3 5 8 10 8 6 3 5 5 2 3 4 6 4 1 0 4 4 0 1 2 2 2 4 8 11 10 5 4 4 4 4 6 4 2 1 1 1 0 2 4 3 2 2 2 1 1 1 1 1 3 5 3 4 4 3 2 2 3 2 0 3 2 1 3 1 4 2 2 4 5 6 6 5 5 3 2 2 1 3 5 4 3 4 4 6 6
3 2 3 9 11 8 6 2 3 5 3 1 1 2 2 2 1 4 3 2 0 3 4 5 7 9 11 10 6 6 7 5 5 7 6 5 4 4 5 4 4 3 1 3 1 1 1 2 3 3 3 2 4 4 4 4 3 0 2 4 3 1 1 1 1 1 3 5 2 4 3 2 7 6 5 7 8 6 4 4 3 6 6 5 5 6 5 5
3 3 2 9 11 9 9 5 3 3 5 1 1 1 2 3 4 6 5 2 0 1 3 6 8 9 11 9 6 7 6 4 6 6 5 6 5 6 7 7 8 5 2 5 4 1 1 1 3 4 3 2 4 4 3 0 2 4 5 5 4 3 2 4 4 2 3 3 4 4 2 3 5 3 7 10 12 11 5 2 2 3 4 4 5 6 5 5
3 3 3 5 9 9 10 6 2 2 5 1 2 3 4 6 5 7 7 2 1 1 2 6 8 9 10 7 6 8 4 3 8 7 5 6 4 5 6 7 9 5 1 3 4 5 3 3 4 6 3 5 7 6 7 6 5 6 5 5 5 5 4 4 3 3 3 1 3 4 1 3 2 2 5 4 6 7 5 2 1 2 3 2 2 3 5 6
3 3 4 3 6 9 11 7 1 4 5 2 3 4 7 7 4 5 6 2 2 2 3 6 7 7 7 3 3 7 2 2 9 7 5 6 5 6 6 7 11 8 3 3 2 5 5 5 5 5 5 11 11 7 6 6 3 5 3 3 5 4 2 1 2 3 2 1 2 2 3 5 3 6 8 6 8 8 7 7 5 5 3 2 1 5 6 6
3 3 4 3 6 7 10 11 6 8 9 4 3 5 7 4 2 2 1 1 3 6 7 6 4 4 6 2 1 3 1 1 8 5 3 5 5 7 7 6 11 11 7 6 2 3 5 2 1 2 3 9 7 4 4 4 2 3 3 4 4 1 2 2 2 1 3 2 4 3 5 6 3 8 10 10 13 11 8 8 6 6 5 2 5 7 6 6
4 4 4 4 6 6 9 12 11 11 8 4 2 5 2 1 0 0 2 3 2 7 7 5 3 4 6 3 2 4 1 2 6 4 3 4 3 7 9 6 9 13 11 7 3 2 5 2 2 1 2 2 2 2 1 2 2 4 4 4 1 3 2 2 1 2 1 5 4 3 8 8 3 6 5 3 8 8 7 8 7 8 7 6 8 7 5 6
5 4 5 6 7 7 9 11 11 7 4 3 4 3 2 2 2 1 2 4 1 5 5 3 4 4 6 6 5 6 6 4 5 5 4 5 3 7 11 7 7 12 12 9 4 1 4 3 3 3 1 2 3 1 1 3 3 4 2 1 2 1 1 2 2 2 3 4 4 5 8 7 6 7 4 4 6 6 7 8 8 7 6 6 7 7 5 4
4 3 3 6 9 9 9 11 9 4 2 5 6 4 4 5 5 3 2 4 3 1 3 2 2 2 2 4 5 8 8 6 7 5 4 4 3 6 10 8 6 9 11 11 6 1 2 3 3 3 4 1 2 0 5 1 3 4 3 2 2 2 3 3 3 2 3 4 5 7 6 6 8 6 3 7 8 7 7 6 5 3 0 1 2 4 6 5
4 2 1 7 11 10 12 11 6 3 2 5 6 5 5 5 6 7 6 3 2 2 0 2 2 1 1 0 1 5 7 7 7 6 4 5 4 3 5 6 6 6 8 9 7 3 2 2 3 2 5 0 1 4 7 7 4 1 1 2 2 1 2 0 2 2 3 3 4 5 6 8 7 2 4 6 2 2 4 5 5 5 5 4 3 4 6 6
3 2 1 10 13 11 12 9 4 3 2 3 5 6 5 4 6 9 10 7 2 3 2 2 2 2 1 1 1 2 4 5 5 5 4 5 6 3 1 1 4 5 5 5 6 4 3 3 4 2 1 3 5 6 6 7 8 8 6 7 7 5 3 1 4 3 3 2 4 4 6 11 6 4 3 3 7 5 6 7 4 6 6 8 7 6 7 5
2 1 2 8 13 13 10 5 3 3 3 3 4 5 3 2 4 8 8 8 5 1 1 2 1 1 1 1 2 3 2 3 3 4 4 4 5 3 2 3 2 6 5 2 3 2 2 3 3 3 4 4 4 2 2 1 2 3 5 6 7 6 5 5 5 4 2 3 4 2 5 13 9 4 3 2 3 1 1 1 7 7 5 7 6 7 7 6
3 2 2 6 13 12 7 5 4 4 4 4 4 5 3 2 3 6 7 7 6 5 3 2 3 4 2 2 3 2 1 1 1 2 1 1 1 0 2 2 2 5 4 1 0 0 2 2 3 2 1 1 2 2 3 3 3 1 4 4 4 5 5 5 5 3 2 4 4 2 5 14 12 3 1 6 5 5 5 4 6 7 6 7 6 7 7 6
3 2 1 4 11 10 6 6 7 6 6 4 5 7 5 4 5 6 7 8 6 5 6 5 5 5 3 2 3 2 1 1 2 2 1 1 0 1 4 3 3 3 2 1 1 1 1 2 3 3 1 1 2 2 3 4 1 2 4 3 4 5 3 2 2 1 2 5 7 5 6 12 13 5 3 3 2 3 4 4 6 7 6 6 7 7 5 5
3 3 0 3 6 7 5 3 3 6 7 7 7 9 8 5 5 7 7 8 6 5 5 6 6 7 5 4 5 5 5 4 3 3 2 2 1 2 2 3 3 2 2 2 2 2 1 2 3 5 6 6 3 2 3 2 1 1 3 5 8 8 6 4 2 3 5 8 8 7 7 10 16 16 11 9 8 6 4 4 6 6 6 7 7 6 6 6
3 3 2 3 3 4 4 2 2 3 5 8 8 8 10 7 4 7 7 6 7 7 5 5 6 8 8 8 8 8 9 10 8 5 3 4 3 1 0 2 3 3 5 6 4 4 3 1 2 3 6 6 4 2 2 4 4 4 7 8 9 9 7 6 3 5 7 7 8 9 10 12 20 23 19 16 16 10 5 6 8 7 8 8 7 7 7 6
3 3 3 4 3 4 5 5 5 4 3 6 7 5 10 10 5 6 7 6 7 8 5 4 5 7 9 10 9 9 10 11 11 9 7 5 3 1 1 1 2 5 8 5 3 3 4 2 3 4 7 7 5 7 5 3 2 6 8 8 9 9 8 7 7 10 9 6 9 12 12 14 18 21 21 21 18 11 5 6 8 7 7 8 7 8 7 6
4 2 3 5 3 5 7 7 9 10 6 5 5 5 8 11 9 7 7 5 6 8 6 5 7 10 11 11 9 7 9 10 10 11 10 6 3 2 1 1 1 5 7 3 2 4 5 3 5 5 8 10 9 10 9 6 5 5 6 7 7 8 10 10 12 14 11 9 11 12 12 14 15 16 22 22 16 11 8 7 6 6 8 8 7 7 7 6
4 3 3 5 3 4 7 5 6 10 9 6 4 6 8 11 13 9 6 5 6 8 8 8 11 12 11 10 8 7 8 8 8 9 8 6 4 3 2 1 1 2 4 4 1 2 4 4 6 6 7 11 12 11 10 9 9 9 9 10 8 7 10 12 14 15 14 13 14 15 17 18 16 15 19 20 17 14 11 9 10 11 11 10 9 8 8 8
4 2 2 3 3 3 4 6 6 7 9 7 5 6 7 10 13 10 7 8 7 8 10 11 11 11 11 10 9 8 8 7 8 7 6 6 6 4 4 4 2 0 1 3 2 1 2 4 6 7 4 10 13 13 12 10 10 11 11 11 11 12 12 12 12 11 10 12 15 16 17 18 16 13 14 17 19 17 13 13 14 14 12 10 9 9 10 10
8 5 3 2 4 3 3 5 7 7 7 7 7 8 9 10 12 10 7 9 9 8 11 14 12 7 8 11 12 12 10 7 6 2 3 4 3 2 1 1 3 2 3 3 2 2 3 2 3 6 4 7 10 11 12 11 8 9 11 13 16 17 16 15 12 9 10 13 14 14 12 13 14 11 10 14 19 18 16 15 16 16 14 10 9 10 12 13
11 8 5 2 3 5 3 3 6 7 7 9 12 12 10 9 8 8 6 7 10 10 9 11 10 6 6 11 13 11 6 2 1 4 6 3 4 4 2 3 4 3 3 3 2 3 4 3 3 5 4 7 8 8 7 6 4 6 11 16 20 19 17 14 12 13 17 15 11 11 11 11 12 12 12 16 19 17 16 15 15 16 15 11 9 10 13 15
Wind_Direction
238 209 223 218 221 242 258 267 282 288 229 197 187 185 196 201 204 205 206 205 209 217 223 227 230 243 256 268 271 270 258 221 219 226 217 239 188 170 177 179 182 183 194 200 203 232 232 216 192 182 177 196 190 145 252 312 341 245 131 209 242 233 246 143 97 78 133 134 147 165 171 169 145 152 129 116 226 187 159 163 117 80 78 100 119 124 127 139
244 211 219 223 231 249 264 268 265 281 255 219 207 200 203 205 209 209 207 204 205 214 221 223 227 238 250 261 265 268 257 232 244 243 208 189 174 172 179 179 180 189 198 211 243 252 243 191 162 188 195 174 155 181 259 306 251 246 154 216 246 203 23 21 61 55 54 120 149 159 189 197 148 151 136 152 196 185 193 197 159 129 105 113 129 136 139 146
248 215 211 223 231 238 250 268 266 272 263 236 227 218 212 210 211 210 211 208 204 211 218 223 227 235 246 254 257 262 269 260 260 240 169 168 172 179 182 181 183 191 202 235 283 293 299 282 160 196 212 177 210 181 193 159 194 251 113 217 276 45 59 34 59 71 31 60 141 145 174 202 134 133 136 203 210 185 195 203 178 175 159 150 152 147 149 157
244 215 204 223 226 230 248 262 268 273 272 256 244 234 224 213 213 212 211 209 206 210 216 220 225 233 241 247 253 259 306 287 261 141 156 173 180 188 182 182 187 191 211 238 293 303 302 296 179 214 237 185 158 133 173 174 141 78 92 163 329 357 54 44 53 62 26 9 95 120 124 195 130 112 148 200 232 207 206 210 190 194 182 161 161 158 156 163
241 225 208 222 228 236 252 256 263 267 273 273 255 246 238 221 218 215 212 211 208 209 214 219 223 232 236 244 246 242 27 260 112 105 162 175 185 190 183 186 186 193 211 226 284 282 273 255 214 238 261 178 137 149 167 142 76 202 145 92 30 3 51 53 53 40 356 337 81 111 127 177 108 106 184 211 241 212 189 231 167 191 173 156 158 159 159 167
238 240 230 224 231 239 251 255 261 266 274 279 265 257 246 233 229 225 221 213 210 210 213 217 220 226 229 240 233 158 251 223 72 93 173 172 186 185 182 187 182 197 191 242 279 266 259 242 211 216 252 190 159 170 128 116 97 246 118 76 38 19 65 55 59 23 329 352 90 113 140 70 101 192 204 212 235 199 106 78 54 51 122 143 151 156 162 173
231 244 240 224 228 234 247 257 256 266 277 275 267 262 250 240 233 232 230 220 217 213 212 216 218 224 218 200 157 169 246 285 52 194 174 169 177 176 181 187 194 196 182 260 263 236 237 232 207 219 238 212 173 159 105 120 163 243 139 87 42 33 75 59 69 86 345 24 49 21 341 36 187 236 206 213 233 222 113 99 84 75 112 135 146 160 172 178
233 243 239 225 224 229 243 252 250 256 270 272 258 256 256 246 236 233 232 228 225 218 215 217 214 219 200 164 139 215 226 177 113 170 165 163 167 170 165 164 185 177 208 266 268 254 248 227 224 232 219 246 167 138 139 157 177 238 150 108 95 63 89 88 100 109 46 47 35 29 287 250 200 69 345 245 240 236 142 113 109 104 118 140 151 168 178 181
237 239 230 222 223 229 242 245 247 252 264 263 239 240 250 246 240 231 231 230 228 223 221 218 216 217 194 176 229 255 207 144 149 156 155 155 161 160 136 121 152 199 261 262 275 285 274 231 234 240 100 290 130 123 169 173 188 241 115 116 124 105 98 116 128 114 110 123 67 62 238 236 89 59 265 245 239 224 160 133 132 127 141 163 164 172 180 183
238 235 225 221 224 231 243 248 250 256 271 265 240 235 236 242 242 226 227 228 226 225 223 221 219 207 188 190 237 252 150 132 141 146 150 153 149 145 131 157 178 266 279 239 259 296 306 309 307 44 28 330 104 82 35 72 269 71 104 103 107 121 119 230 155 120 132 79 97 269 279 248 98 81 254 257 247 187 148 150 155 149 171 186 181 181 184 187
242 239 229 221 225 232 245 252 249 250 267 269 248 233 226 234 235 220 219 220 222 221 219 220 213 203 192 224 246 236 152 144 148 145 146 149 144 146 158 176 167 267 314 240 135 342 341 335 337 20 4 111 112 58 42 20 265 120 115 99 107 144 135 193 177 143 171 80 183 288 306 277 111 168 237 214 155 149 151 174 177 178 196 200 199 193 189 193
241 240 227 216 222 231 242 246 246 257 267 271 253 235 226 228 227 217 211 211 216 213 209 208 204 198 189 264 259 178 149 152 149 142 138 132 126 129 141 135 142 108 332 324 97 30 30 345 335 341 345 118 123 96 103 237 242 126 153 131 145 172 163 194 175 147 183 135 253 357 315 264 176 225 238 189 152 163 170 192 191 196 206 210 211 198 193 198
226 222 213 211 220 224 237 242 246 264 269 277 269 245 229 222 221 209 203 204 205 203 198 200 197 178 131 277 188 128 145 148 140 135 126 114 97 78 104 111 104 104 339 11 97 96 109 11 336 11 30 353 113 136 190 196 103 140 213 207 149 182 204 194 160 141 161 130 191 98 323 264 218 236 235 162 151 161 174 205 203 201 204 206 208 199 196 196
197 190 181 190 207 207 224 238 250 268 273 284 276 247 228 212 208 199 196 195 192 191 187 192 186 156 132 216 117 128 150 139 129 137 134 116 98 86 86 95 97 96 90 104 105 98 83 19 345 96 51 14 107 173 166 124 137 158 169 300 205 207 192 169 144 158 172 202 193 130 241 268 283 276 190 139 155 161 187 217 215 214 210 201 194 195 200 198
165 170 171 179 182 182 205 222 249 272 274 285 279 247 219 200 195 187 189 187 178 181 181 187 178 156 208 227 131 141 148 137 134 160 147 127 123 122 102 96 92 85 96 109 104 88 60 16 353 105 57 9 108 145 136 138 228 164 131 264 243 226 180 140 131 164 162 287 192 149 226 263 275 284 108 123 138 157 218 237 233 229 218 207 192 188 198 206
155 158 170 180 174 168 190 202 239 279 289 299 294 236 194 183 177 170 177 172 164 167 164 176 181 188 283 170 140 146 155 155 164 169 154 134 116 120 124 108 88 82 94 100 98 87 53 24 15 99 70 230 189 175 153 146 216 191 169 228 214 198 191 177 314 346 120 125 187 196 252 276 276 159 129 159 157 165 217 246 249 241 226 216 200 192 198 207
168 171 166 171 180 187 198 212 259 314 336 339 321 188 161 150 146 145 147 145 140 146 148 293 178 185 293 115 141 160 157 154 166 171 165 144 117 126 147 132 104 107 109 98 91 85 35 32 86 265 86 177 228 207 155 164 217 199 189 251 234 179 186 183 316 326 146 192 224 216 231 258 270 256 212 219 195 180 200 224 236 236 232 229 214 205 202 202
138 152 158 165 174 172 182 218 292 340 360 18 104 131 129 124 122 118 125 132 116 102 359 316 183 185 240 170 145 124 128 143 160 167 167 154 135 151 191 170 143 147 141 126 162 121 49 35 59 4 165 205 242 203 171 202 215 183 182 222 229 182 240 247 124 178 183 196 252 232 235 250 261 265 255 232 208 196 209 221 226 231 235 240 230 218 212 206
109 112 118 122 114 98 98 123 272 360 65 102 114 116 112 110 112 114 152 156 132 94 285 201 181 182 145 141 114 92 113 136 143 147 163 160 153 165 211 198 172 171 166 149 205 208 107 100 62 3 201 202 231 219 213 241 13 49 174 199 203 194 246 164 104 12 238 173 235 240 249 254 256 264 264 251 223 209 220 227 229 233 233 238 236 229 223 217
119 112 109 107 104 88 70 31 359 58 113 122 120 121 118 122 132 143 181 208 228 320 4 183 172 126 103 108 104 110 112 122 127 131 166 164 160 173 199 197 154 349 218 163 161 196 83 133 167 215 221 211 221 225 230 360 24 18 9 360 317 7 22 85 93 334 336 327 245 241 253 261 260 262 263 263 260 248 240 240 239 234 230 230 231 233 229 224
152 132 121 115 106 78 28 341 18 66 161 152 144 180 150 147 182 146 160 212 237 91 45 35 87 79 97 121 136 142 120 97 116 129 167 176 172 175 184 184 153 202 225 130 109 80 73 170 206 214 222 208 240 221 111 44 20 11 2 357 347 331 93 76 84 240 357 14 268 273 277 270 268 272 272 266 262 256 244 244 244 239 237 232 230 234 233 230
183 170 151 145 148 283 312 338 15 27 180 174 215 260 356 29 346 80 113 202 197 124 88 69 94 83 84 123 161 187 200 136 129 130 172 182 185 178 160 176 191 182 162 102 91 95 121 217 223 207 152 71 50 41 46 23 5 21 18 358 325 286 139 72 64 316 81 189 273 312 306 280 273 269 268 261 251 246 235 233 237 237 239 238 235 235 228 225
205 192 183 179 194 251 279 341 2 44 169 189 256 282 14 11 4 39 24 236 165 176 180 190 188 137 109 139 193 210 204 150 148 168 180 178 182 192 152 181 205 167 150 152 146 150 160 219 230 104 84 87 58 43 37 16 1 4 195 224 271 250 85 34 348 306 228 220 296 327 308 281 272 257 255 251 244 244 237 234 234 227 229 234 238 236 216 213
218 209 196 186 217 250 276 333 347 129 188 215 253 299 343 350 1 39 325 297 127 166 218 174 233 160 145 147 184 201 224 132 127 156 177 183 157 133 184 196 207 190 169 180 192 193 153 151 267 75 85 165 114 90 109 140 248 227 211 212 229 228 120 121 57 305 244 247 357 328 308 282 262 240 259 262 243 238 233 233 237 228 229 241 248 249 230 218
219 218 210 197 216 244 278 308 293 212 202 207 229 263 289 318 347 38 144 255 180 140 352 106 202 187 153 124 160 190 75 75 41 122 172 189 140 125 197 212 202 208 191 183 201 216 164 341 300 126 129 180 161 165 183 187 228 237 215 211 237 277 5 101 70 11 326 333 313 349 341 291 291 294 288 300 278 241 225 220 229 231 236 245 249 248 244 238
220 217 211 206 215 230 261 288 215 195 181 170 233 254 263 277 319 19 123 303 234 170 115 162 165 174 163 143 155 138 85 165 12 71 148 176 273 111 161 119 66 218 209 184 193 224 143 315 345 113 127 130 155 224 192 176 208 264 264 335 333 325 33 85 60 37 358 281 247 128 82 280 303 297 267 273 274 260 246 230 226 227 231 233 233 228 230 234
253 219 206 204 211 213 229 346 184 186 156 146 269 240 228 219 278 353 111 339 265 167 143 151 212 176 165 165 168 143 122 167 115 57 84 114 197 44 89 163 119 186 269 67 103 38 115 135 42 75 112 119 147 232 195 169 173 251 282 334 347 74 101 129 150 196 212 322 295 167 144 231 293 284 241 196 280 277 266 252 240 232 233 231 223 209 205 209
262 248 215 205 207 202 205 332 318 197 91 17 330 212 197 192 243 335 130 200 214 146 144 156 137 143 142 167 178 149 108 141 132 72 18 45 122 44 69 185 171 192 199 106 152 284 44 146 158 136 140 144 151 199 295 177 158 235 255 314 7 85 107 134 144 224 161 28 312 222 159 186 265 276 280 221 255 268 264 257 249 241 238 228 204 176 158 149
249 258 234 209 209 210 218 285 322 360 48 8 4 149 162 175 239 333 173 208 151 114 135 145 131 130 127 150 176 144 108 89 55 129 64 36 56 45 181 235 248 188 174 154 153 357 13 168 190 145 157 164 121 54 336 28 131 202 205 105 61 82 73 70 121 36 63 14 252 203 175 221 256 264 278 272 234 251 257 255 252 246 227 173 147 130 121 112
259 257 238 207 205 219 228 253 279 286 24 15 84 129 138 162 211 158 182 213 140 103 87 116 140 153 152 150 155 163 136 73 65 122 146 150 71 352 290 297 317 112 116 71 73 76 89 136 242 106 126 137 117 84 13 39 97 151 163 116 97 121 66 32 89 84 47 271 246 197 186 207 267 251 244 247 216 216 242 264 245 74 67 85 106 121 136 139
305 268 239 207 198 210 216 229 250 245 355 37 125 138 147 149 261 189 186 197 43 128 139 149 143 147 163 163 152 178 155 108 136 144 142 152 116 309 212 121 2 55 43 10 55 123 147 97 167 42 12 134 118 76 27 24 50 96 152 130 119 40 48 17 357 75 231 252 268 255 194 196 248 244 228 254 252 177 188 237 135 120 124 125 129 155 158 155
334 296 233 203 201 206 204 213 275 242 230 324 106 165 179 148 223 228 191 96 61 178 160 166 160 157 175 172 153 173 160 130 163 164 151 160 164 185 192 182 156 110 347 217 178 62 190 203 146 73 330 220 134 88 39 4 353 15 160 119 112 307 18 321 243 163 230 241 266 328 356 242 247 241 244 277 283 262 221 209 153 132 161 175 174 186 173 156
340 321 251 205 207 216 216 226 313 233 205 242 336 196 189 182 203 215 194 148 212 195 139 154 162 162 176 179 157 160 156 142 171 176 162 164 174 193 207 206 183 177 208 179 164 129 224 284 116 100 336 253 181 145 122 285 240 191 171 139 147 176 205 236 226 212 234 248 291 326 348 270 275 266 234 244 258 260 249 198 126 122 176 190 176 178 175 180
338 319 294 223 217 226 222 222 354 207 195 143 75 126 176 208 207 197 195 171 59 79 117 146 157 160 175 187 156 149 153 158 165 174 172 165 181 198 207 217 205 205 157 163 173 168 199 282 184 170 177 183 198 195 168 160 177 199 188 162 177 175 189 213 190 212 229 247 311 318 284 214 222 286 243 241 281 290 305 306 223 259 235 158 133 173 180 197
341 319 307 260 229 229 218 211 151 150 163 85 66 138 184 206 206 191 192 154 112 120 112 136 147 158 174 196 155 151 139 157 166 174 180 177 194 195 190 204 206 204 176 187 205 164 197 247 182 164 161 168 186 210 180 136 150 222 205 183 216 205 182 188 164 185 163 29 292 254 249 222 209 280 280 290 300 293 297 307 312 302 298 110 188 232 210 209
353 326 303 256 236 228 206 203 186 154 147 92 82 179 199 205 186 180 185 130 153 139 130 140 147 160 169 164 194 178 31 81 165 170 186 195 208 200 195 195 196 200 188 183 205 151 176 246 89 83 146 166 182 224 186 132 162 208 181 202 217 133 115 172 263 41 100 268 261 187 254 275 305 291 268 250 261 259 261 290 301 288 286 274 261 259 242 225
344 316 285 240 230 225 203 195 180 161 148 105 143 198 233 303 241 61 360 333 166 145 142 148 161 182 174 152 172 188 143 106 164 172 179 189 217 210 209 209 189 197 200 189 213 178 158 207 310 47 145 188 293 308 46 42 82 139 174 212 144 39 32 137 224 347 125 247 264 185 250 280 299 277 279 264 267 262 247 253 261 267 274 272 273 281 261 215
331 307 283 254 224 217 210 192 174 154 128 130 176 224 265 264 267 9 360 325 311 162 172 165 165 188 184 172 175 176 168 158 172 187 178 172 215 207 202 213 194 195 202 194 210 238 154 188 294 349 353 311 353 23 176 8 44 114 180 233 99 113 259 142 176 239 213 237 272 254 256 269 247 247 302 313 265 248 234 223 221 241 260 269 279 295 288 221
299 281 272 230 203 207 204 180 162 131 113 172 191 219 215 221 250 284 322 327 339 224 197 130 126 193 185 177 173 166 171 173 168 179 187 176 207 206 191 198 204 196 197 193 201 221 138 180 240 327 326 321 36 190 195 200 20 31 356 350 85 147 181 172 190 200 189 210 253 273 275 261 242 229 232 249 238 218 210 194 174 171 234 283 291 310 311 293
258 264 162 167 176 195 188 169 162 149 149 189 200 199 188 197 224 240 253 269 1 356 320 40 40 156 158 231 161 155 171 180 168 174 199 179 184 223 192 178 186 189 189 193 198 169 119 187 207 315 333 359 163 217 194 177 169 155 288 222 186 135 111 193 257 191 172 192 221 259 272 260 245 186 201 230 223 171 155 121 97 60 28 351 323 302 295 296
239 270 158 156 163 175 171 166 192 196 183 206 203 198 191 177 191 213 228 223 216 22 42 38 29 88 103 60 30 94 164 184 179 175 196 192 187 218 297 211 185 167 162 189 200 178 156 184 173 141 295 216 215 222 199 185 186 186 196 198 196 191 154 199 253 220 178 201 215 219 264 270 250 127 125 111 85 85 98 82 21 356 336 304 292 275 262 267
233 215 147 159 169 171 168 182 209 196 220 219 200 206 198 152 175 188 202 211 214 226 71 70 91 97 79 117 60 28 123 174 190 178 192 211 200 197 344 352 107 137 139 174 210 189 123 143 166 171 196 210 221 215 162 152 183 204 223 210 198 192 176 186 217 217 193 223 242 219 263 273 259 130 85 1 42 26 119 24 318 311 277 250 241 247 257 270
217 196 100 156 182 180 175 198 200 203 229 216 210 214 181 134 179 173 170 186 198 197 187 191 188 189 208 143 100 37 66 141 214 195 181 287 275 69 80 47 82 134 134 62 283 238 91 132 184 200 181 27 14 24 33 38 51 308 263 226 195 202 196 192 193 184 184 199 218 216 244 268 268 180 172 290 290 283 282 282 281 274 252 230 228 248 265 281
222 234 61 161 189 191 193 200 198 207 213 203 215 218 198 187 192 178 170 180 190 189 188 200 190 182 197 151 137 180 163 116 256 244 223 219 292 89 115 100 64 92 113 120 193 211 193 180 176 169 175 325 348 348 347 358 28 244 254 225 217 218 181 145 145 149 241 210 198 206 230 261 273 255 208 267 256 240 265 248 229 240 247 244 250 254 240 236
222 238 249 166 189 202 217 219 211 215 209 202 210 211 207 202 194 194 185 178 190 198 193 201 187 172 178 167 178 207 191 175 230 242 210 226 244 71 109 130 107 80 103 130 120 105 146 200 175 171 197 208 212 215 218 230 207 232 240 220 222 216 177 154 148 168 224 225 213 225 239 260 278 278 273 274 266 255 270 278 265 262 257 252 255 251 227 218
217 217 191 157 173 220 252 295 294 247 208 201 208 209 206 201 184 195 197 186 192 201 207 209 189 182 187 177 181 204 198 194 210 214 198 220 223 54 34 173 159 154 126 104 80 82 98 253 218 207 228 220 210 226 177 134 140 201 227 220 222 224 198 180 188 200 219 236 235 237 240 255 270 276 279 278 274 274 287 289 285 282 272 264 254 248 245 231
227 224 193 167 166 221 237 246 239 243 228 205 203 197 203 207 192 181 193 197 190 193 214 223 193 193 196 188 189 199 195 194 204 214 215 209 179 107 86 101 130 144 124 93 23 80 105 251 243 237 264 266 268 288 317 40 153 216 230 226 223 231 215 194 216 227 224 235 247 240 235 246 260 271 278 277 278 289 293 268 272 280 281 280 268 259 256 235
226 251 215 190 191 208 213 220 218 219 238 243 216 193 200 208 205 189 189 202 199 192 198 214 213 211 204 196 195 198 195 193 200 213 220 209 157 116 117 60 97 146 126 84 347 95 116 228 227 215 258 272 277 284 296 308 292 269 263 256 239 228 221 216 228 235 227 229 249 255 251 253 259 268 274 278 285 297 296 284 287 296 299 301 290 273 257 240
224 281 251 216 222 211 206 208 198 206 226 250 234 208 200 204 209 203 179 179 207 206 196 205 213 212 211 207 203 203 200 196 200 207 206 197 174 151 159 126 54 137 117 101 146 129 132 208 205 192 241 262 263 267 273 277 279 278 273 272 273 255 234 226 230 236 237 240 251 261 264 263 259 261 272 284 292 293 295 300 298 293 292 292 287 278 269 262
206 236 255 244 259 249 219 205 181 195 219 232 239 229 214 208 209 207 187 175 189 201 201 211 214 205 207 213 215 219 209 199 215 214 186 186 188 174 185 176 137 162 139 123 153 192 173 193 177 160 213 255 253 253 256 254 256 263 267 270 272 269 260 248 241 239 241 246 249 253 261 266 263 261 272 285 289 290 295 297 292 287 283 281 282 282 277 270
226 262 305 301 253 232 230 209 187 190 211 216 225 226 223 219 208 202 202 191 188 193 198 209 215 203 203 212 218 228 224 216 234 233 114 158 177 131 185 168 118 138 169 146 140 160 177 184 135 139 198 247 241 240 247 246 243 252 259 256 249 249 252 250 246 239 234 239 244 247 252 260 267 273 277 277 280 285 290 290 287 286 285 281 279 277 274 270
227 268 289 298 254 218 214 218 192 192 206 210 216 219 221 225 209 196 204 200 199 205 202 202 205 199 209 216 218 224 217 173 117 81 85 89 77 81 99 94 97 132 163 155 137 150 169 167 137 153 198 249 242 225 226 234 227 224 234 237 235 236 242 247 249 243 237 235 237 242 244 253 270 283 278 270 272 278 283 283 281 283 286 283 269 265 270 272
Height
779 780 780 780 780 781 781 782 782 782 782 782 782 783 784 785 786 787 787 788 789 789 789 790 790 791 791 791 790 790 790 790 790 790 790 789 789 789 789 790 790 790 790 790 790 791 790 790 790 790 791 792 793 794 795 793 793 798 806 816 819 814 810 806 805 807 808 814 814 811 809 812 817 816 813 813 816 818 818 818 817 818 820 821 824 825 826 828
778 779 780 780 780 780 781 781 782 782 782 782 782 783 784 785 786 786 787 787 788 789 789 790 790 791 791 791 790 790 790 790 790 789 788 789 789 789 790 790 790 790 790 790 790 790 790 789 789 789 791 794 795 795 798 795 796 802 807 815 815 810 806 800 801 804 804 810 812 810 809 809 813 814 813 818 821 819 821 821 818 821 823 824 824 825 827 828
778 779 780 780 780 781 781 781 781 782 781 782 782 783 784 784 785 785 786 787 787 788 789 790 790 791 791 791 790 790 789 789 790 788 787 788 789 789 790 790 790 790 790 790 790 789 789 787 788 790 792 796 796 796 800 798 798 801 805 815 812 805 804 800 801 805 805 805 808 810 809 809 810 810 814 818 819 819 821 820 819 822 823 824 824 825 827 828
778 779 780 780 781 781 781 781 781 782 782 782 782 783 784 784 785 785 785 786 787 788 789 789 790 790 791 790 790 790 788 791 791 787 787 788 789 790 790 790 790 790 790 791 791 790 789 787 787 789 792 798 797 796 801 800 800 801 805 814 809 801 806 806 804 806 805 804 806 809 810 812 809 808 813 816 820 821 817 814 814 816 816 819 822 823 825 827
777 778 779 780 781 781 781 782 782 782 782 782 783 783 784 784 785 785 785 786 787 788 788 789 790 790 790 789 790 789 790 797 792 785 787 788 789 790 790 790 790 791 791 791 791 790 790 788 788 791 795 799 799 800 802 798 799 803 804 806 805 802 808 809 806 808 807 804 806 809 813 812 808 810 813 815 820 820 813 809 808 807 808 813 818 821 823 825
777 777 778 779 780 781 781 781 781 782 782 782 783 783 784 784 784 785 785 786 786 787 788 789 789 789 789 789 789 788 793 798 791 786 788 787 789 790 790 791 791 791 791 792 791 790 791 789 791 796 797 798 801 802 801 797 798 806 805 803 805 804 808 809 808 810 808 806 809 811 811 809 810 814 811 812 816 812 808 806 806 805 805 809 815 818 821 823
776 777 778 778 779 780 780 781 781 781 782 782 782 782 783 784 784 785 785 786 786 787 787 788 788 789 789 789 789 790 792 793 787 787 788 787 789 789 790 791 791 792 791 792 791 791 791 792 795 797 797 799 800 801 800 798 799 806 809 806 807 806 808 810 809 811 809 810 811 810 810 810 814 815 810 811 809 805 805 804 805 807 806 810 814 817 819 820
775 776 777 778 778 779 779 780 780 781 781 781 781 782 782 783 783 784 784 786 786 787 787 787 788 788 788 789 789 791 792 790 787 788 788 788 789 789 791 791 791 792 791 792 791 790 791 794 795 794 798 800 797 799 801 801 803 806 808 808 808 808 809 810 810 811 810 810 810 810 812 812 811 813 813 811 806 803 804 804 805 807 809 811 813 816 817 818
775 775 776 777 777 778 778 779 779 780 780 780 780 781 782 782 783 783 784 785 786 787 787 787 788 787 788 788 789 793 791 787 787 788 788 789 789 790 791 791 791 791 791 792 790 790 792 794 794 791 798 798 794 800 801 805 809 805 806 808 808 810 810 810 810 811 811 810 810 812 814 811 809 812 812 807 804 802 802 805 806 807 810 811 812 814 815 817
774 775 776 776 776 777 777 778 778 778 779 779 780 780 781 782 782 783 784 785 786 786 787 787 788 787 788 788 791 795 790 786 788 788 788 789 789 790 790 790 791 791 791 791 790 791 791 793 791 788 794 796 796 801 801 806 808 803 804 807 808 811 810 810 811 811 811 810 811 814 815 811 809 814 814 805 800 800 802 806 806 807 810 810 811 811 812 814
774 774 775 776 776 777 777 777 778 778 779 779 780 780 780 781 781 782 783 784 785 786 787 787 787 787 788 789 792 793 788 787 788 788 789 789 789 790 790 790 790 791 791 790 791 791 791 791 788 789 795 796 798 803 803 804 804 802 805 809 811 811 811 811 811 811 811 812 812 812 814 812 812 815 810 803 800 800 803 806 806 807 809 808 809 809 810 811
773 774 774 775 776 776 777 777 777 778 779 779 779 779 779 780 781 781 783 784 785 786 787 787 787 788 788 789 791 789 787 788 788 788 789 789 790 790 790 790 790 790 791 790 791 790 791 791 789 794 798 795 801 807 806 803 802 803 805 812 815 812 813 812 810 811 811 814 811 811 818 815 813 811 800 798 801 800 803 805 805 806 806 807 807 807 808 808
772 773 774 775 775 776 777 777 777 778 778 778 778 778 778 779 780 781 782 783 784 786 786 786 787 787 789 790 788 787 787 788 788 789 789 789 790 790 790 791 790 790 791 790 791 790 791 791 791 794 795 797 804 806 804 801 803 807 806 811 816 818 817 810 809 811 812 815 809 813 826 818 807 801 794 796 800 800 804 804 804 804 804 805 804 805 805 805
772 772 773 774 775 776 777 777 777 777 778 778 778 778 778 778 779 780 781 783 784 785 786 786 787 788 789 790 787 787 788 788 789 789 789 790 790 791 791 791 791 791 790 790 791 791 791 791 791 793 795 798 802 803 804 806 807 809 811 813 816 822 822 810 808 812 813 816 809 815 831 821 804 799 795 796 798 801 804 804 803 802 801 802 802 803 803 803
771 772 773 774 775 776 777 777 777 777 777 777 777 777 778 778 780 780 782 783 784 785 785 786 787 788 790 789 787 788 788 788 789 789 790 790 791 792 792 791 791 790 791 791 791 791 791 791 793 797 800 799 800 806 810 812 810 809 818 825 819 821 825 815 810 812 814 816 810 817 830 821 806 801 798 797 798 801 804 803 802 800 799 799 799 800 802 801
771 772 773 774 775 776 777 777 777 777 777 777 777 777 778 779 780 781 782 783 784 785 785 786 786 788 790 789 787 788 789 789 789 790 790 790 791 792 792 792 791 791 791 791 791 792 791 793 796 800 802 803 805 809 812 818 818 813 820 828 821 820 825 821 815 811 812 815 814 818 824 818 807 802 800 798 799 801 803 803 801 799 797 797 797 798 799 799
771 772 773 774 775 776 776 777 777 777 777 778 777 778 778 779 780 781 783 783 785 785 785 786 785 787 789 788 788 788 787 788 789 789 790 791 791 791 792 792 792 792 792 792 792 792 793 796 801 802 802 806 806 807 819 831 829 821 821 824 818 816 820 822 821 815 812 816 817 818 821 818 809 803 801 800 799 801 802 801 799 797 796 795 795 795 795 796
771 772 773 774 775 775 776 777 777 777 777 777 778 779 779 780 781 782 783 784 785 785 787 786 786 792 793 788 787 787 785 787 789 789 790 791 791 791 792 792 792 793 793 795 795 795 797 799 803 807 808 809 807 809 825 830 823 821 823 824 820 814 815 818 821 818 814 817 819 819 821 817 808 802 800 799 798 799 799 797 796 794 794 793 793 793 793 793
771 772 773 774 775 776 776 776 777 777 777 777 778 779 780 781 782 783 784 785 784 786 788 785 784 791 791 785 784 785 785 787 789 790 790 790 791 792 791 792 792 793 798 802 800 798 800 804 809 815 816 814 810 809 816 814 810 814 816 817 818 816 816 816 819 818 815 819 821 820 819 814 808 803 798 795 794 796 796 794 793 792 791 791 791 790 789 789
772 773 774 774 775 776 776 777 777 777 777 777 778 780 781 782 784 785 784 784 782 782 783 781 780 783 784 783 784 786 787 788 789 790 790 791 791 792 792 792 794 797 800 803 804 800 801 811 818 818 815 810 807 805 806 806 806 810 813 814 814 816 818 818 822 821 815 820 820 815 814 810 805 801 796 794 792 793 794 793 791 790 789 788 788 787 786 785
773 774 774 775 776 776 777 777 777 777 777 777 778 779 778 778 782 783 782 783 780 778 780 779 779 781 782 783 784 784 786 789 790 789 791 791 790 794 795 794 800 805 801 800 804 802 805 817 818 811 807 804 803 802 804 807 809 812 816 819 818 818 819 820 823 822 817 822 820 812 813 810 804 800 794 793 793 792 791 789 788 786 785 784 784 784 783 781
773 774 774 776 776 777 777 777 777 778 778 778 778 777 776 777 779 779 779 781 780 778 779 779 780 781 782 783 783 783 785 790 792 791 790 791 791 795 796 796 803 805 800 800 807 811 816 819 812 803 802 803 804 804 806 810 812 815 818 823 825 820 819 822 824 821 819 824 822 816 818 812 803 799 794 791 789 786 783 782 782 781 781 781 780 779 779 779
774 774 775 776 776 778 777 778 778 777 778 778 778 777 777 778 778 778 778 779 780 780 779 779 780 781 783 784 783 783 785 787 792 792 790 791 793 794 796 799 801 801 802 804 810 818 822 816 806 802 802 803 807 808 809 813 815 819 821 826 829 821 821 828 827 823 821 822 822 821 823 814 801 797 791 785 781 779 778 776 775 776 776 776 774 774 775 776
773 774 776 776 777 778 777 778 778 777 778 777 778 777 777 778 778 778 778 777 779 780 779 779 779 779 782 782 781 783 785 783 787 790 789 790 792 793 795 797 799 802 803 803 806 812 816 811 804 803 804 805 810 812 814 819 822 820 819 823 825 820 821 826 826 823 820 821 823 825 826 811 794 793 788 778 776 776 775 774 772 772 772 771 770 770 771 772
772 774 775 776 777 777 778 778 777 777 777 777 778 777 778 779 777 778 779 779 782 781 780 779 778 779 778 780 782 782 783 784 785 787 787 788 791 794 795 793 797 803 801 800 804 808 811 810 806 806 808 807 811 816 816 820 824 821 818 818 818 817 819 822 824 825 827 831 827 826 832 814 791 791 790 779 777 777 774 773 773 772 771 770 770 769 769 770
771 773 774 776 777 777 779 778 776 777 776 777 777 776 778 778 778 779 778 785 789 784 783 782 779 779 777 780 782 780 786 790 788 787 787 789 789 791 797 795 797 803 799 797 803 807 810 811 808 808 810 811 815 818 814 815 824 826 822 819 816 816 821 824 826 830 835 836 826 824 836 829 805 792 789 782 778 777 773 772 772 771 770 768 768 768 768 768
771 772 773 775 776 777 779 777 777 777 776 778 776 776 778 777 779 778 781 800 797 778 780 784 779 777 776 778 779 782 793 792 789 790 788 790 790 789 797 800 800 803 798 799 809 812 811 813 812 810 813 817 819 820 814 812 823 828 824 823 820 819 824 826 827 832 834 832 828 824 830 839 825 795 780 782 782 778 775 773 771 769 767 764 763 764 765 766
771 772 772 774 775 777 778 777 777 776 776 777 775 777 777 777 780 777 788 811 795 768 774 780 777 775 775 777 777 782 790 787 790 795 789 790 792 791 798 800 799 801 796 803 817 815 811 814 814 812 816 819 820 822 816 811 821 827 824 823 821 821 824 825 828 832 832 835 839 831 828 840 834 799 778 781 784 782 776 771 768 764 761 760 761 762 764 765
771 772 772 774 775 777 777 777 778 776 777 776 775 777 776 778 780 778 794 804 778 762 771 775 777 778 777 780 780 782 786 787 792 795 791 791 792 792 798 798 795 798 797 801 813 815 814 817 814 812 816 819 822 826 821 814 818 824 823 822 822 823 824 827 831 833 836 843 842 833 829 836 829 802 785 786 784 782 775 767 764 761 760 760 761 763 765 766
771 772 772 774 775 776 777 777 777 777 777 776 776 776 775 779 781 789 807 796 767 767 775 775 779 779 779 784 786 784 786 791 792 792 793 793 793 793 795 795 793 799 803 804 812 817 816 816 815 813 814 817 822 826 823 819 819 821 823 824 826 827 827 831 832 833 843 845 836 828 824 829 828 804 785 784 779 772 768 765 764 762 762 763 763 765 766 767
772 772 773 774 775 776 776 777 777 777 777 776 776 776 777 782 785 797 805 781 764 774 779 778 779 778 780 784 788 788 787 792 792 793 797 796 798 799 798 801 801 807 815 814 816 820 817 817 817 815 815 815 819 823 824 822 821 823 823 824 831 835 835 839 839 842 850 843 832 829 823 827 830 805 779 773 769 765 765 764 765 765 765 765 765 766 766 768
772 773 773 774 775 775 776 777 776 776 777 776 776 776 779 789 794 795 786 770 770 777 774 776 778 777 779 779 783 787 787 792 792 791 796 798 802 803 801 804 805 814 824 821 821 824 820 818 816 817 818 815 817 824 828 827 824 825 823 826 839 844 846 849 849 850 850 840 833 832 829 826 817 794 777 772 766 763 762 761 762 764 765 765 766 766 766 768
773 773 774 774 774 775 775 775 776 776 776 775 776 776 780 794 796 783 773 769 773 771 766 770 772 774 778 779 783 785 785 791 792 790 792 795 801 802 799 797 796 805 814 815 823 828 824 819 818 821 821 815 814 822 831 831 827 826 825 830 841 847 852 855 850 845 841 837 836 834 832 825 805 785 776 771 764 761 760 760 761 761 763 764 764 765 766 768
774 774 774 774 774 775 774 775 776 776 776 775 776 780 787 793 784 771 770 770 769 768 766 768 771 774 777 778 780 782 786 791 789 789 791 795 802 804 800 797 793 796 802 809 817 822 825 823 818 817 815 813 813 813 816 820 824 824 817 821 831 834 839 843 841 838 835 837 840 839 833 818 800 784 772 766 763 761 760 760 760 760 761 763 763 764 766 767
774 774 775 774 775 774 774 776 776 776 777 776 777 783 789 786 775 768 769 768 767 770 769 768 772 778 780 780 778 778 784 789 787 788 792 794 799 799 797 797 793 792 800 809 809 810 818 815 807 806 804 806 810 805 801 810 825 823 812 819 827 820 820 829 835 833 835 841 842 839 828 804 788 777 767 766 764 760 760 759 759 761 761 762 764 763 764 765
774 775 775 775 774 774 774 776 776 777 778 779 785 786 780 775 770 767 765 763 765 769 772 775 777 781 784 784 783 780 781 784 786 790 793 793 793 792 789 788 786 786 793 802 801 802 813 814 807 807 806 805 807 804 799 806 817 819 818 822 818 810 812 825 836 834 837 843 833 824 817 798 788 779 764 763 764 761 763 761 760 762 761 762 762 761 763 764
775 775 775 774 774 774 775 775 777 778 777 782 791 788 779 775 773 770 767 764 762 763 771 780 780 780 783 786 788 785 783 785 787 792 795 795 792 787 784 781 779 780 782 788 793 791 800 813 813 811 811 809 808 806 804 804 808 815 823 818 809 812 815 820 834 838 840 843 826 812 809 801 800 791 766 761 767 765 764 763 761 761 761 762 761 760 762 762
776 776 775 773 774 774 774 776 777 777 778 785 794 792 786 783 775 771 771 767 764 763 767 774 775 774 778 783 786 785 784 788 791 792 793 795 790 779 779 780 775 775 776 780 790 787 788 808 818 816 816 813 808 809 811 810 808 811 815 811 811 824 826 823 833 838 841 845 830 812 809 804 799 789 772 768 769 765 763 762 761 761 760 761 760 760 760 759
776 777 775 772 773 774 774 777 777 778 781 787 794 792 785 782 775 771 772 770 768 766 767 769 771 773 775 776 779 781 784 786 790 793 791 792 788 775 772 776 774 773 773 777 787 787 786 802 816 820 819 815 813 814 815 815 814 812 812 811 812 819 823 822 824 825 832 841 834 821 816 802 784 774 771 769 764 761 762 761 761 761 760 760 760 759 759 758
776 776 774 771 773 774 774 777 778 781 784 783 784 783 778 777 776 773 771 772 773 771 772 772 771 774 776 774 773 777 782 782 785 790 788 785 785 777 770 772 774 773 772 775 781 785 789 798 810 822 823 818 817 813 808 811 814 816 818 818 817 817 820 822 819 815 820 831 833 829 821 796 768 760 763 762 760 759 760 761 761 761 760 760 760 758 758 758
776 777 774 771 773 774 774 778 778 779 780 776 775 774 771 771 772 773 771 772 774 775 775 776 776 776 777 777 776 776 779 781 780 784 784 781 780 780 774 770 771 773 775 781 783 784 791 797 806 822 825 819 812 802 798 801 802 807 812 812 813 815 819 827 827 816 813 819 820 823 821 791 757 754 757 756 759 759 759 762 762 762 762 760 758 757 758 758
777 777 773 771 774 773 775 778 776 775 776 773 770 768 767 766 767 771 771 772 775 776 776 778 780 781 780 780 781 781 781 782 781 781 782 779 776 776 775 771 769 772 777 785 785 780 785 793 802 813 813 810 805 798 798 799 797 800 804 802 805 809 814 824 829 818 813 815 810 815 821 787 749 750 757 755 759 759 760 763 763 763 763 759 758 758 757 756
776 775 772 772 773 773 776 779 776 775 773 768 765 764 765 766 767 768 770 773 775 775 777 779 779 781 781 781 783 785 784 786 787 784 783 783 779 775 775 772 771 773 778 785 786 782 785 792 801 806 804 803 803 799 799 800 800 804 802 799 802 805 806 811 815 812 813 816 812 819 826 790 748 748 758 755 758 760 760 762 763 763 761 759 759 758 756 756
774 773 771 772 772 773 775 773 771 772 769 766 766 765 763 764 766 767 770 772 773 773 776 777 776 779 782 781 784 787 786 789 790 787 785 787 783 776 774 774 774 776 780 785 785 785 790 795 799 806 811 812 812 811 809 807 807 807 803 800 800 800 803 807 808 811 815 813 810 818 821 792 753 747 756 758 758 760 760 760 761 761 760 759 758 756 756 756
774 773 772 771 772 773 771 767 765 766 765 766 767 765 763 764 764 765 767 769 769 769 772 772 771 776 780 782 785 786 786 789 792 789 787 787 783 778 776 776 777 778 780 783 781 782 793 797 797 805 813 815 815 814 811 807 808 808 804 800 799 798 803 807 808 816 818 809 805 809 808 789 761 749 755 758 758 760 762 761 760 760 760 759 757 756 756 756
774 773 772 772 773 773 771 768 768 767 762 764 766 763 764 764 763 762 764 767 767 767 768 768 768 772 776 779 784 785 784 787 789 788 789 788 783 781 780 778 779 781 782 784 783 785 795 800 797 800 803 802 802 799 795 796 803 806 802 800 801 799 800 803 809 814 811 806 805 801 796 790 773 757 756 756 755 760 764 763 761 760 758 757 756 756 755 755
773 769 768 771 773 774 773 771 770 768 761 760 761 760 761 763 763 763 764 764 765 766 768 768 768 771 772 774 779 782 781 783 786 786 786 785 782 783 784 781 781 783 783 786 787 789 798 803 799 800 801 797 796 794 791 795 801 802 801 801 802 801 801 805 808 804 801 807 806 792 788 790 780 765 758 753 752 758 762 761 760 758 757 755 754 754 754 755
772 766 760 762 765 769 770 767 766 766 764 760 757 756 759 761 761 762 764 764 763 764 768 770 769 768 768 768 773 777 777 781 784 784 783 782 782 785 786 784 785 785 784 789 791 791 801 806 801 802 804 800 798 798 797 799 801 800 801 801 800 801 803 805 804 798 797 803 799 787 786 788 780 769 759 750 750 756 757 757 757 756 755 754 753 753 753 753
770 766 760 757 758 759 760 761 763 766 767 765 760 755 756 759 758 757 759 764 766 764 766 770 768 766 766 766 769 773 775 777 780 779 779 780 782 785 787 786 788 789 787 791 793 792 799 806 803 805 809 805 802 802 801 802 803 802 801 800 799 799 800 800 799 795 794 797 792 787 787 782 773 768 760 750 749 751 753 754 755 754 754 753 752 752 751 750
767 767 762 758 757 756 757 759 763 768 768 767 764 757 753 754 756 754 754 760 767 765 763 765 765 764 765 766 768 771 769 770 773 773 774 777 779 782 783 783 787 790 789 791 793 792 796 801 801 806 812 809 802 802 803 804 805 804 803 802 800 799 797 796 795 794 795 796 790 788 790 780 765 762 762 756 749 749 752 754 752 750 751 752 751 751 749 748
764 764 762 763 761 758 758 756 758 765 768 766 764 758 753 751 752 753 753 754 759 761 760 761 762 763 765 766 767 768 765 765 769 769 771 775 777 779 781 780 782 788 791 792 793 794 797 799 801 807 812 806 798 799 803 803 806 810 808 803 800 797 793 790 790 791 791 790 789 791 792 780 762 759 764 760 752 751 753 753 750 746 746 749 750 748 745 743
763 763 763 766 763 757 757 756 756 761 762 759 756 753 751 750 748 752 756 753 752 754 755 756 761 764 766 766 765 765 764 766 770 772 773 775 776 778 781 782 784 788 791 792 794 795 797 799 802 807 810 802 794 796 800 802 808 810 801 792 788 788 787 786 787 784 779 780 785 785 780 770 762 762 763 758 753 753 752 749 746 743 741 744 746 744 741 737